Weather History for Williamsport, PA

Change the Weather History Date:

Monday, March 3, 2014

  Actual Average Record
Temperature  
Mean Temperature 16 °F 34 °F  
Max Temperature 23 °F 43 °F 64 °F (1991)
Min Temperature 9 °F 24 °F 1 °F (1925)
Degree Days  
Heating Degree Days 49 31  
Month to date heating degree days 130 95  
Since 1 July heating degree days 4962 4562  
Cooling Degree Days 0 0  
Month to date cooling degree days 0 0  
Year to date cooling degree days 0 0  
Moisture  
Dew Point -3 °F    
Average Humidity 46    
Maximum Humidity 58    
Minimum Humidity 33    
Precipitation  
Precipitation 0.00 in 0.08 in 1.46 in (1904)
Month to date precipitation T 0.25  
Year to date precipitation 3.80 5.29  
Snow  
Snow 0.00 in - - ()
Month to date snowfall 0.1  
Since 1 July snowfall 45.9  
Snow Depth 1.00 in    
Sea Level Pressure  
Sea Level Pressure 30.29 in    
Wind  
Wind Speed 7 mph (NNW)    
Max Wind Speed 16 mph    
Max Gust Speed 23 mph    
Visibility 10 miles    
Events      
T = Trace of Precipitation, MM = Missing Value Source: NWS Daily Summary

Daily Weather History Graph

Daily Weather History Graph

Search for Another Location

Airport:

Trip Planner

Search our weather history database for the weather conditions in past years. The results will help you decide how hot, cold, wet, or windy it might be!

Date:

Astronomy

Mar. 03, 2014 Rise Set
Actual Time 6:38 AM EST 6:00 PM EST
Civil Twilight 6:11 AM EST 6:28 PM EST
Nautical Twilight 5:39 AM EST 7:00 PM EST
Astronomical Twilight 5:07 AM EST 7:32 PM EST
Moon 7:44 AM EST (3/3) 9:03 PM EST (3/3)
Length of Visible Light 12h 17m
Length of Day
11h 21m
Waxing Crescent, 8% of the Moon is Illuminated
Mar 3
Waxing Crescent
Mar 8
First Quarter
Mar 16
Full
Mar 23
Last Quarter
Mar 30
New

Hourly Weather History & Observations

Time (EST) Temp. Windchill Dew Point Humidity Pressure Visibility Wind Dir Wind Speed Gust Speed Precip Events Conditions
12:54 AM 19.9 °F 8.6 °F 3.0 °F 48% 30.14 in 10.0 mi NNW 10.4 mph 17.3 mph N/A   Overcast
1:54 AM 16.0 °F 4.4 °F -6.0 °F 38% 30.18 in 10.0 mi NW 9.2 mph 17.3 mph N/A   Overcast
2:54 AM 14.0 °F 2.0 °F -6.0 °F 41% 30.19 in 10.0 mi NNW 9.2 mph 17.3 mph N/A   Clear
3:54 AM 12.9 °F -2.2 °F -2.9 °F 49% 30.20 in 10.0 mi NW 13.8 mph 20.7 mph N/A   Clear
4:54 AM 12.0 °F -2.0 °F -2.9 °F 51% 30.23 in 10.0 mi NW 11.5 mph - N/A   Clear
5:54 AM 10.0 °F -3.7 °F -4.0 °F 53% 30.25 in 10.0 mi NNW 10.4 mph 20.7 mph N/A   Clear
6:54 AM 10.0 °F -0.9 °F -2.9 °F 56% 30.27 in 10.0 mi NNW 6.9 mph - N/A   Clear
7:54 AM 10.9 °F 0.2 °F -4.0 °F 51% 30.28 in 10.0 mi NNW 6.9 mph - N/A   Clear
8:54 AM 12.0 °F 0.5 °F -2.9 °F 51% 30.28 in 10.0 mi NW 8.1 mph - N/A   Clear
9:54 AM 12.0 °F 0.5 °F -2.9 °F 51% 30.29 in 10.0 mi NNW 8.1 mph - N/A   Clear
10:54 AM 14.0 °F 2.0 °F -2.0 °F 49% 30.29 in 10.0 mi NNW 9.2 mph - N/A   Overcast
11:54 AM 14.0 °F 2.0 °F -2.0 °F 49% 30.30 in 10.0 mi NW 9.2 mph - N/A   Overcast
12:54 PM 16.0 °F 3.6 °F -0.9 °F 47% 30.29 in 10.0 mi NW 10.4 mph - N/A   Mostly Cloudy
1:54 PM 19.0 °F 10.0 °F -0.9 °F 42% 30.29 in 10.0 mi NNW 6.9 mph 16.1 mph N/A   Scattered Clouds
2:54 PM 21.0 °F 9.9 °F -0.9 °F 38% 30.28 in 10.0 mi NNW 10.4 mph - N/A   Partly Cloudy
3:54 PM 21.9 °F 13.4 °F -4.0 °F 32% 30.29 in 10.0 mi North 6.9 mph 16.1 mph N/A   Partly Cloudy
4:54 PM 21.9 °F 10.4 °F -2.9 °F 34% 30.31 in 10.0 mi North 11.5 mph - N/A   Clear
5:54 PM 19.9 °F 11.1 °F -4.0 °F 35% 30.33 in 10.0 mi NNW 6.9 mph - N/A   Clear
6:54 PM 18.0 °F 11.1 °F -5.1 °F 36% 30.36 in 10.0 mi NNW 4.6 mph - N/A   Clear
7:54 PM 16.0 °F - -5.1 °F 39% 30.37 in 10.0 mi Calm Calm - N/A   Clear
8:54 PM 12.0 °F 5.9 °F -2.9 °F 51% 30.39 in 10.0 mi SW 3.5 mph - N/A   Clear
9:54 PM 12.9 °F 6.9 °F -4.0 °F 47% 30.40 in 10.0 mi NW 3.5 mph - N/A   Clear
10:54 PM 12.0 °F - -2.9 °F 51% 30.40 in 10.0 mi Calm Calm - N/A   Clear
11:54 PM 10.0 °F - -2.9 °F 56% 30.40 in 10.0 mi Calm Calm - N/A   Clear